STARLINK-35380

Last updated on Mon Oct 20 2025 00:02:08 GMT+0000 (Coordinated Universal Time)

1 65905U 25224Z 25292.25002315 -.01409477 00000+0 -64191-2 0 9994 2 65905 53.1510 313.3111 0001013 89.6998 121.3460 15.86008163 3108
UTC large
Height (km)
Speed (km/s)
/
Latitude / Longitude
Inclination (degrees)
Orbital Period (minutes)
Azimuth
Elevation
Range (km)
Doppler Factor

Next 0 passes for location: London (51.5072 / 0.1276)

Sorry there are no passes over London.